Tracking 28790 objects as of 19-Apr-2024
HD Live streaming from Space Station
objects crossing your sky now

CZ-4 DEB

Track CZ-4 DEB now!
10-day predictions


NORAD ID: 26272
Int'l Code: 1999-057FJ
Perigee: 635.7 km
Apogee: 732.9 km
Inclination: 98.3 °
Period: 98.3 minutes
Semi major axis: 7055 km
RCS: 0.029 m2 (small)
Launch date: October 14, 1999
Source: People's Republic of China (PRC)
Launch site: Taiyaun Space Center, China (TSC)

Note: This is SATELLITE DEBRIS
Your satellite tracking list
Your tracking list is empty




NASA's NSSDC Master Catalog

Two Line Element Set (TLE):
1 26272U 99057FJ  24109.75588781  .00013552  00000-0  24491-2 0  9992
2 26272  98.3323 171.9805 0068841  78.7223  44.1066 14.64979194272530
Source of the keplerian elements: AFSPC